Location: Unspecified
(38.9820°N, 94.4650°W)
Time: 06:09:30
(UTC-05:00)

Envisat - Visible Passes

Search period start: 20 October 2019 00:00
Search period end: 30 October 2019 00:00
Orbit: 764 x 766 km, 98.1° (Epoch: 20 October)

Date Brightness Start Highest point End Pass type
(mag) Time Alt. Az. Time Alt. Az. Time Alt. Az.
20 Oct 3.0 19:10:26 10° SSE 19:15:27 67° ENE 19:20:31 10° N visible
20 Oct 6.1 20:52:37 10° WSW 20:54:55 13° W 20:57:14 10° WNW visible
21 Oct 4.9 20:13:24 10° SSW 20:17:50 30° W 20:22:17 10° NW visible
22 Oct 6.7 06:47:14 10° ENE 06:48:12 10° E 06:49:08 10° E visible
22 Oct 3.3 19:35:53 10° S 19:40:56 70° WSW 19:46:01 10° NNW visible
23 Oct 3.1 18:59:20 10° SSE 19:04:14 52° ENE 19:09:10 10° N visible
23 Oct 5.8 20:40:18 10° SW 20:43:32 17° W 20:46:47 10° NW visible
24 Oct 4.5 20:01:48 10° SSW 20:06:30 38° W 20:11:14 10° NNW visible
25 Oct 3.0 19:24:35 10° SSE 19:29:40 88° W 19:34:47 10° NNW visible
26 Oct 3.4 18:48:18 10° SE 18:53:01 41° ENE 18:57:46 10° N visible
26 Oct 5.5 20:28:20 10° SW 20:32:10 22° W 20:36:02 10° NW visible
27 Oct 6.2 06:59:39 10° NE 07:02:36 15° E 07:05:33 10° SE visible
27 Oct 4.0 19:50:18 10° S 19:55:12 49° W 20:00:08 10° NNW visible
28 Oct 2.9 19:13:22 10° SSE 19:18:25 73° ENE 19:23:30 10° N visible
28 Oct 6.2 20:56:11 10° WSW 20:57:56 12° W 20:59:42 10° WNW visible
29 Oct 5.1 20:16:32 10° SSW 20:20:49 27° W 20:25:08 10° NW visible
